CORVUS BC2

Last updated on Tue Jul 01 2025 00:03:44 GMT+0000 (Coordinated Universal Time)

1 42846U 17042X 25181.48139201 .00002382 00000+0 18080-3 0 9997 2 42846 97.3766 353.0640 0013167 228.3844 131.6255 15.03052956434172
UTC large
Height (km)
Speed (km/s)
/
Latitude / Longitude
Inclination (degrees)
Orbital Period (minutes)
Azimuth
Elevation
Range (km)
Doppler Factor

Next 0 passes for location: London (51.5072 / 0.1276)

Sorry there are no passes over London.